contact:dominique.lefevre@mio.osupytheas.fr, maurice.libes@osupytheas.fr, didier.mallarino@osupytheas.fr
Project:EMSO http://www.emso-fr.org/EMSO-France
Depth: 2436.0 m
Title:EMSO Ligure Ouest : Data MII capteur MICROCAT
DateTime_Computer,Latitude,Longitude,Temperature,Conductivity,Pressure,DateTime_Instrument
DateTime_Computer,Latitude,Longitude,degC,S m-1,dbar,DateTime_Instrument
2021-04-07T00:00:54Z,42.805,6.029,13.2986,4.60010,2469.643,2021-4-07T02:02:02Z
2021-04-07T00:03:57Z,42.805,6.029,13.2984,4.60010,2469.657,2021-4-07T02:05:05Z
2021-04-07T00:07:00Z,42.805,6.029,13.2981,4.60009,2469.62,2021-4-07T02:08:08Z
2021-04-07T00:10:03Z,42.805,6.029,13.3094,4.60009,2469.657,2021-4-07T02:11:11Z
2021-04-07T00:13:07Z,42.805,6.029,13.3000,4.60082,2469.643,2021-4-07T02:14:14Z
2021-04-07T00:16:10Z,42.805,6.029,13.2992,4.60053,2469.634,2021-4-07T02:17:18Z
2021-04-07T00:19:13Z,42.805,6.029,13.3038,4.60044,2469.61,2021-4-07T02:20:21Z
2021-04-07T00:22:16Z,42.805,6.029,13.3056,4.60009,2469.597,2021-4-07T02:23:24Z
2021-04-07T00:25:19Z,42.805,6.029,13.3014,4.60021,2469.62,2021-4-07T02:26:27Z
2021-04-07T00:28:22Z,42.805,6.029,13.3100,4.60015,2469.643,2021-4-07T02:29:30Z
2021-04-07T00:31:25Z,42.805,6.029,13.3132,4.60011,2469.634,2021-4-07T02:32:33Z
2021-04-07T00:34:28Z,42.805,6.029,13.3083,4.60014,2469.657,2021-4-07T02:35:36Z
2021-04-07T00:37:32Z,42.805,6.029,13.3047,4.60008,2469.62,2021-4-07T02:38:39Z
2021-04-07T00:40:35Z,42.805,6.029,13.3027,4.60009,2469.643,2021-4-07T02:41:43Z
2021-04-07T00:43:38Z,42.805,6.029,13.3025,4.59999,2469.657,2021-4-07T02:44:46Z
2021-04-07T00:46:41Z,42.805,6.029,13.3027,4.60003,2469.634,2021-4-07T02:47:49Z
2021-04-07T00:49:44Z,42.805,6.029,13.3045,4.60014,2469.61,2021-4-07T02:50:52Z
2021-04-07T00:52:47Z,42.805,6.029,13.3055,4.60016,2469.657,2021-4-07T02:53:55Z
2021-04-07T00:55:50Z,42.805,6.029,13.3068,4.60003,2469.634,2021-4-07T02:56:58Z
2021-04-07T00:58:53Z,42.805,6.029,13.3066,4.59999,2469.657,2021-4-07T03:00:01Z
2021-04-07T01:01:56Z,42.805,6.029,13.3074,4.60029,2469.634,2021-4-07T03:03:04Z
2021-04-07T01:05:00Z,42.805,6.029,13.3075,4.60018,2469.643,2021-4-07T03:06:07Z
2021-04-07T01:08:03Z,42.805,6.029,13.3073,4.60037,2469.643,2021-4-07T03:09:11Z
2021-04-07T01:11:06Z,42.805,6.029,13.3059,4.60011,2469.667,2021-4-07T03:12:14Z
2021-04-07T01:14:09Z,42.805,6.029,13.3046,4.60009,2469.68,2021-4-07T03:15:17Z
2021-04-07T01:17:12Z,42.805,6.029,13.3057,4.60027,2469.643,2021-4-07T03:18:20Z
2021-04-07T01:20:15Z,42.805,6.029,13.3043,4.60031,2469.704,2021-4-07T03:21:23Z
2021-04-07T01:23:18Z,42.805,6.029,13.3040,4.60029,2469.68,2021-4-07T03:24:26Z
2021-04-07T01:26:21Z,42.805,6.029,13.3039,4.60049,2469.657,2021-4-07T03:27:29Z
2021-04-07T01:29:24Z,42.805,6.029,13.3044,4.60071,2469.657,2021-4-07T03:30:32Z
2021-04-07T01:32:28Z,42.805,6.029,13.3042,4.60025,2469.643,2021-4-07T03:33:36Z
2021-04-07T01:35:31Z,42.805,6.029,13.3046,4.60024,2469.657,2021-4-07T03:36:39Z
2021-04-07T01:38:34Z,42.805,6.029,13.3045,4.60011,2469.68,2021-4-07T03:39:42Z
2021-04-07T01:41:37Z,42.805,6.029,13.3046,4.60017,2469.643,2021-4-07T03:42:45Z
2021-04-07T01:44:40Z,42.805,6.029,13.3055,4.60019,2469.667,2021-4-07T03:45:48Z
2021-04-07T01:47:43Z,42.805,6.029,13.3052,4.60006,2469.667,2021-4-07T03:48:51Z
2021-04-07T01:50:46Z,42.805,6.029,13.3058,4.60032,2469.704,2021-4-07T03:51:54Z
2021-04-07T01:53:49Z,42.805,6.029,13.3058,4.60057,2469.68,2021-4-07T03:54:57Z
2021-04-07T01:56:53Z,42.805,6.029,13.3058,4.60046,2469.657,2021-4-07T03:58:00Z
2021-04-07T01:59:56Z,42.805,6.029,13.3066,4.60049,2469.727,2021-4-07T04:01:04Z
2021-04-07T02:02:59Z,42.805,6.029,13.3063,4.60037,2469.704,2021-4-07T04:04:07Z
2021-04-07T02:06:02Z,42.805,6.029,13.3063,4.60032,2469.704,2021-4-07T04:07:10Z
2021-04-07T02:09:05Z,42.805,6.029,13.3068,4.60029,2469.69,2021-4-07T04:10:13Z
2021-04-07T02:12:08Z,42.805,6.029,13.3070,4.60037,2469.68,2021-4-07T04:13:16Z
2021-04-07T02:15:11Z,42.805,6.029,13.3069,4.60022,2469.667,2021-4-07T04:16:19Z
2021-04-07T02:18:14Z,42.805,6.029,13.3054,4.60056,2469.667,2021-4-07T04:19:22Z
2021-04-07T02:21:17Z,42.805,6.029,13.3047,4.60025,2469.75,2021-4-07T04:22:25Z
2021-04-07T02:24:21Z,42.805,6.029,13.3051,4.60023,2469.704,2021-4-07T04:25:28Z
2021-04-07T02:27:24Z,42.805,6.029,13.3026,4.60026,2469.704,2021-4-07T04:28:32Z
2021-04-07T02:30:27Z,42.805,6.029,13.3035,4.60033,2469.727,2021-4-07T04:31:35Z
2021-04-07T02:33:30Z,42.805,6.029,13.3041,4.60036,2469.727,2021-4-07T04:34:38Z
2021-04-07T02:36:33Z,42.805,6.029,13.3050,4.60041,2469.727,2021-4-07T04:37:41Z
2021-04-07T02:39:36Z,42.805,6.029,13.3054,4.60047,2469.704,2021-4-07T04:40:44Z
2021-04-07T02:42:39Z,42.805,6.029,13.3054,4.60039,2469.704,2021-4-07T04:43:47Z
2021-04-07T02:45:42Z,42.805,6.029,13.3051,4.60049,2469.704,2021-4-07T04:46:50Z
2021-04-07T02:48:45Z,42.805,6.029,13.3048,4.60058,2469.69,2021-4-07T04:49:53Z
2021-04-07T02:51:49Z,42.805,6.029,13.3066,4.60066,2469.75,2021-4-07T04:52:57Z
2021-04-07T02:54:52Z,42.805,6.029,13.3064,4.60051,2469.704,2021-4-07T04:56:00Z
2021-04-07T02:57:55Z,42.805,6.029,13.3060,4.60057,2469.704,2021-4-07T04:59:03Z
2021-04-07T03:00:58Z,42.805,6.029,13.3060,4.60052,2469.727,2021-4-07T05:02:06Z
2021-04-07T03:04:01Z,42.805,6.029,13.3048,4.60057,2469.704,2021-4-07T05:05:09Z
2021-04-07T03:07:04Z,42.805,6.029,13.3048,4.60064,2469.727,2021-4-07T05:08:12Z
2021-04-07T03:10:07Z,42.805,6.029,13.3039,4.60041,2469.727,2021-4-07T05:11:15Z
2021-04-07T03:13:10Z,42.805,6.029,13.3041,4.60056,2469.727,2021-4-07T05:14:18Z
2021-04-07T03:16:14Z,42.805,6.029,13.3042,4.60059,2469.737,2021-4-07T05:17:22Z
2021-04-07T03:19:17Z,42.805,6.029,13.3048,4.60049,2469.704,2021-4-07T05:20:25Z
2021-04-07T03:22:20Z,42.805,6.029,13.3042,4.60029,2469.69,2021-4-07T05:23:28Z
2021-04-07T03:25:23Z,42.805,6.029,13.3050,4.60042,2469.727,2021-4-07T05:26:31Z
2021-04-07T03:28:26Z,42.805,6.029,13.3036,4.60063,2469.727,2021-4-07T05:29:34Z
2021-04-07T03:31:29Z,42.805,6.029,13.3032,4.60058,2469.704,2021-4-07T05:32:37Z
2021-04-07T03:34:32Z,42.805,6.029,13.3039,4.60054,2469.704,2021-4-07T05:35:40Z
2021-04-07T03:37:35Z,42.805,6.029,13.3033,4.60058,2469.737,2021-4-07T05:38:43Z
2021-04-07T03:40:38Z,42.805,6.029,13.3040,4.60033,2469.69,2021-4-07T05:41:46Z
2021-04-07T03:43:42Z,42.805,6.029,13.3052,4.60018,2469.727,2021-4-07T05:44:50Z
2021-04-07T03:46:45Z,42.805,6.029,13.3078,4.60036,2469.727,2021-4-07T05:47:53Z
2021-04-07T03:49:48Z,42.805,6.029,13.3068,4.60014,2469.704,2021-4-07T05:50:56Z
2021-04-07T03:52:51Z,42.805,6.029,13.3059,4.60049,2469.727,2021-4-07T05:53:59Z
2021-04-07T03:55:54Z,42.805,6.029,13.3060,4.60033,2469.727,2021-4-07T05:57:02Z
2021-04-07T03:58:57Z,42.805,6.029,13.3044,4.60020,2469.737,2021-4-07T06:00:05Z
2021-04-07T04:02:00Z,42.805,6.029,13.3051,4.60034,2469.75,2021-4-07T06:03:08Z
2021-04-07T04:05:03Z,42.805,6.029,13.3051,4.60037,2469.704,2021-4-07T06:06:11Z
2021-04-07T04:08:07Z,42.805,6.029,13.3043,4.60026,2469.704,2021-4-07T06:09:14Z
2021-04-07T04:11:10Z,42.805,6.029,13.3029,4.60031,2469.737,2021-4-07T06:12:18Z
2021-04-07T04:14:13Z,42.805,6.029,13.3015,4.60026,2469.68,2021-4-07T06:15:21Z
2021-04-07T04:17:16Z,42.805,6.029,13.3014,4.60032,2469.727,2021-4-07T06:18:24Z
2021-04-07T04:20:19Z,42.805,6.029,13.3012,4.60043,2469.713,2021-4-07T06:21:27Z
2021-04-07T04:23:22Z,42.805,6.029,13.3046,4.60015,2469.713,2021-4-07T06:24:30Z
2021-04-07T04:26:25Z,42.805,6.029,13.3058,4.60005,2469.704,2021-4-07T06:27:33Z
2021-04-07T04:29:28Z,42.805,6.029,13.3063,4.60006,2469.75,2021-4-07T06:30:36Z
2021-04-07T04:32:31Z,42.805,6.029,13.3053,4.60022,2469.713,2021-4-07T06:33:39Z
2021-04-07T04:35:35Z,42.805,6.029,13.3051,4.60021,2469.727,2021-4-07T06:36:43Z
2021-04-07T04:38:38Z,42.805,6.029,13.3028,4.60032,2469.727,2021-4-07T06:39:46Z
2021-04-07T04:41:41Z,42.805,6.029,13.3025,4.60079,2469.737,2021-4-07T06:42:49Z
2021-04-07T04:44:44Z,42.805,6.029,13.3034,4.60070,2469.713,2021-4-07T06:45:52Z
2021-04-07T04:47:47Z,42.805,6.029,13.3034,4.60055,2469.727,2021-4-07T06:48:55Z
2021-04-07T04:50:50Z,42.805,6.029,13.3043,4.60044,2469.713,2021-4-07T06:51:58Z
2021-04-07T04:53:53Z,42.805,6.029,13.3052,4.60078,2469.704,2021-4-07T06:55:01Z
2021-04-07T04:56:56Z,42.805,6.029,13.3058,4.60084,2469.69,2021-4-07T06:58:04Z
2021-04-07T05:00:00Z,42.805,6.029,13.3063,4.60041,2469.68,2021-4-07T07:01:08Z
2021-04-07T05:03:03Z,42.805,6.029,13.3070,4.60055,2469.69,2021-4-07T07:04:11Z
2021-04-07T05:06:06Z,42.805,6.029,13.3067,4.60035,2469.69,2021-4-07T07:07:14Z
2021-04-07T05:09:09Z,42.805,6.029,13.3062,4.60038,2469.667,2021-4-07T07:10:17Z
2021-04-07T05:12:12Z,42.805,6.029,13.3068,4.60034,2469.713,2021-4-07T07:13:20Z
2021-04-07T05:15:15Z,42.805,6.029,13.3049,4.60031,2469.713,2021-4-07T07:16:23Z
2021-04-07T05:18:18Z,42.805,6.029,13.3023,4.60043,2469.727,2021-4-07T07:19:26Z
2021-04-07T05:21:21Z,42.805,6.029,13.3031,4.60038,2469.704,2021-4-07T07:22:29Z
2021-04-07T05:24:24Z,42.805,6.029,13.3039,4.60057,2469.727,2021-4-07T07:25:32Z
2021-04-07T05:27:28Z,42.805,6.029,13.3071,4.60031,2469.69,2021-4-07T07:28:36Z
2021-04-07T05:30:31Z,42.805,6.029,13.3047,4.60053,2469.69,2021-4-07T07:31:39Z
2021-04-07T05:33:34Z,42.805,6.029,13.3051,4.60040,2469.727,2021-4-07T07:34:42Z
2021-04-07T05:36:37Z,42.805,6.029,13.3056,4.60008,2469.69,2021-4-07T07:37:45Z
2021-04-07T05:39:40Z,42.805,6.029,13.3061,4.60014,2469.69,2021-4-07T07:40:48Z
2021-04-07T05:42:43Z,42.805,6.029,13.3057,4.60033,2469.69,2021-4-07T07:43:51Z
2021-04-07T05:45:46Z,42.805,6.029,13.3061,4.60025,2469.657,2021-4-07T07:46:54Z
2021-04-07T05:48:49Z,42.805,6.029,13.3050,4.60036,2469.667,2021-4-07T07:49:57Z
2021-04-07T05:51:53Z,42.805,6.029,13.3056,4.60029,2469.69,2021-4-07T07:53:01Z
2021-04-07T05:54:56Z,42.805,6.029,13.3052,4.60039,2469.68,2021-4-07T07:56:04Z
2021-04-07T05:57:59Z,42.805,6.029,13.3045,4.60041,2469.69,2021-4-07T07:59:07Z
2021-04-07T06:01:02Z,42.805,6.029,13.3036,4.60022,2469.704,2021-4-07T08:02:10Z
2021-04-07T06:04:05Z,42.805,6.029,13.3046,4.60019,2469.69,2021-4-07T08:05:13Z
2021-04-07T06:07:08Z,42.805,6.029,13.3051,4.60005,2469.62,2021-4-07T08:08:16Z
2021-04-07T06:10:11Z,42.805,6.029,13.3058,4.60014,2469.643,2021-4-07T08:11:19Z
2021-04-07T06:13:14Z,42.805,6.029,13.3031,4.60021,2469.657,2021-4-07T08:14:22Z
2021-04-07T06:16:18Z,42.805,6.029,13.3034,4.60048,2469.653,2021-4-07T08:17:25Z
2021-04-07T06:19:21Z,42.805,6.029,13.3022,4.60014,2469.68,2021-4-07T08:20:29Z
2021-04-07T06:22:24Z,42.805,6.029,13.3024,4.60014,2469.667,2021-4-07T08:23:32Z
2021-04-07T06:25:27Z,42.805,6.029,13.3009,4.60021,2469.62,2021-4-07T08:26:35Z
2021-04-07T06:28:30Z,42.805,6.029,13.3006,4.60017,2469.657,2021-4-07T08:29:38Z
2021-04-07T06:31:33Z,42.805,6.029,13.3029,4.60036,2469.68,2021-4-07T08:32:41Z
2021-04-07T06:34:36Z,42.805,6.029,13.3022,4.60018,2469.657,2021-4-07T08:35:44Z
2021-04-07T06:37:39Z,42.805,6.029,13.3016,4.60018,2469.657,2021-4-07T08:38:47Z
2021-04-07T06:40:42Z,42.805,6.029,13.3038,4.60009,2469.62,2021-4-07T08:41:50Z
2021-04-07T06:43:46Z,42.805,6.029,13.3019,4.60021,2469.62,2021-4-07T08:44:54Z
2021-04-07T06:46:49Z,42.805,6.029,13.3024,4.60032,2469.62,2021-4-07T08:47:57Z
2021-04-07T06:49:52Z,42.805,6.029,13.3061,4.60084,2469.657,2021-4-07T08:51:00Z
2021-04-07T06:52:55Z,42.805,6.029,13.3070,4.60084,2469.62,2021-4-07T08:54:03Z
2021-04-07T06:55:58Z,42.805,6.029,13.3039,4.60042,2469.643,2021-4-07T08:57:06Z
2021-04-07T06:59:01Z,42.805,6.029,13.3037,4.60028,2469.643,2021-4-07T09:00:09Z
2021-04-07T07:02:04Z,42.805,6.029,13.3037,4.60034,2469.657,2021-4-07T09:03:12Z
2021-04-07T07:05:07Z,42.805,6.029,13.3011,4.60046,2469.657,2021-4-07T09:06:15Z
2021-04-07T07:08:11Z,42.805,6.029,13.3021,4.60049,2469.62,2021-4-07T09:09:18Z
2021-04-07T07:11:14Z,42.805,6.029,13.3028,4.60041,2469.643,2021-4-07T09:12:22Z
2021-04-07T07:14:17Z,42.805,6.029,13.3033,4.60049,2469.643,2021-4-07T09:15:25Z
2021-04-07T07:17:20Z,42.805,6.029,13.3036,4.60029,2469.61,2021-4-07T09:18:28Z
2021-04-07T07:20:23Z,42.805,6.029,13.3051,4.60017,2469.573,2021-4-07T09:21:31Z
2021-04-07T07:23:26Z,42.805,6.029,13.3056,4.60021,2469.634,2021-4-07T09:24:34Z
2021-04-07T07:26:29Z,42.805,6.029,13.3048,4.60047,2469.587,2021-4-07T09:27:37Z
2021-04-07T07:29:32Z,42.805,6.029,13.3051,4.60031,2469.634,2021-4-07T09:30:40Z
2021-04-07T07:32:35Z,42.805,6.029,13.3052,4.60010,2469.573,2021-4-07T09:33:43Z
2021-04-07T07:35:39Z,42.805,6.029,13.3051,4.60012,2469.587,2021-4-07T09:36:47Z
2021-04-07T07:38:42Z,42.805,6.029,13.3070,4.60027,2469.61,2021-4-07T09:39:50Z
2021-04-07T07:41:45Z,42.805,6.029,13.3058,4.60011,2469.634,2021-4-07T09:42:53Z
2021-04-07T07:44:48Z,42.805,6.029,13.3058,4.60027,2469.573,2021-4-07T09:45:56Z
2021-04-07T07:47:51Z,42.805,6.029,13.3056,4.60038,2469.587,2021-4-07T09:48:59Z
2021-04-07T07:50:54Z,42.805,6.029,13.3058,4.60033,2469.587,2021-4-07T09:52:02Z
2021-04-07T07:53:57Z,42.805,6.029,13.3058,4.60037,2469.61,2021-4-07T09:55:05Z
2021-04-07T07:57:00Z,42.805,6.029,13.3034,4.60046,2469.587,2021-4-07T09:58:08Z
2021-04-07T08:00:04Z,42.805,6.029,13.3043,4.60037,2469.587,2021-4-07T10:01:11Z
2021-04-07T08:03:07Z,42.805,6.029,13.3025,4.60009,2469.587,2021-4-07T10:04:15Z
2021-04-07T08:06:10Z,42.805,6.029,13.3022,4.60021,2469.587,2021-4-07T10:07:18Z
2021-04-07T08:09:13Z,42.805,6.029,13.3043,4.60025,2469.573,2021-4-07T10:10:21Z
2021-04-07T08:12:16Z,42.805,6.029,13.3042,4.60026,2469.563,2021-4-07T10:13:24Z
2021-04-07T08:15:19Z,42.805,6.029,13.3032,4.60011,2469.526,2021-4-07T10:16:27Z
2021-04-07T08:18:22Z,42.805,6.029,13.3024,4.60043,2469.503,2021-4-07T10:19:30Z
2021-04-07T08:21:25Z,42.805,6.029,13.3037,4.60037,2469.563,2021-4-07T10:22:33Z
2021-04-07T08:24:29Z,42.805,6.029,13.3033,4.60037,2469.563,2021-4-07T10:25:36Z
2021-04-07T08:27:32Z,42.805,6.029,13.3045,4.60035,2469.526,2021-4-07T10:28:40Z
2021-04-07T08:30:35Z,42.805,6.029,13.3050,4.60035,2469.563,2021-4-07T10:31:43Z
2021-04-07T08:33:38Z,42.805,6.029,13.3040,4.60022,2469.55,2021-4-07T10:34:46Z
2021-04-07T08:36:41Z,42.805,6.029,13.3046,4.60026,2469.563,2021-4-07T10:37:49Z
2021-04-07T08:39:44Z,42.805,6.029,13.3034,4.60031,2469.503,2021-4-07T10:40:52Z
2021-04-07T08:42:47Z,42.805,6.029,13.3054,4.60031,2469.503,2021-4-07T10:43:55Z
2021-04-07T08:45:50Z,42.805,6.029,13.3067,4.60034,2469.54,2021-4-07T10:46:58Z
2021-04-07T08:48:54Z,42.805,6.029,13.3061,4.60029,2469.526,2021-4-07T10:50:01Z
2021-04-07T08:51:57Z,42.805,6.029,13.3046,4.60016,2469.526,2021-4-07T10:53:05Z
2021-04-07T08:55:00Z,42.805,6.029,13.3033,4.60033,2469.54,2021-4-07T10:56:08Z
2021-04-07T08:58:03Z,42.805,6.029,13.3047,4.60025,2469.563,2021-4-07T10:59:11Z
2021-04-07T09:01:06Z,42.805,6.029,13.3041,4.60036,2469.54,2021-4-07T11:02:14Z
2021-04-07T09:04:09Z,42.805,6.029,13.3028,4.60029,2469.54,2021-4-07T11:05:17Z
2021-04-07T09:07:12Z,42.805,6.029,13.3041,4.60050,2469.48,2021-4-07T11:08:20Z
2021-04-07T09:10:15Z,42.805,6.029,13.3039,4.60034,2469.48,2021-4-07T11:11:23Z
2021-04-07T09:13:18Z,42.805,6.029,13.3043,4.60043,2469.517,2021-4-07T11:14:26Z
2021-04-07T09:16:22Z,42.805,6.029,13.3043,4.60079,2469.517,2021-4-07T11:17:30Z
2021-04-07T09:19:25Z,42.805,6.029,13.3058,4.60050,2469.48,2021-4-07T11:20:33Z
2021-04-07T09:22:28Z,42.805,6.029,13.3069,4.60040,2469.526,2021-4-07T11:23:36Z
2021-04-07T09:25:31Z,42.805,6.029,13.3058,4.60039,2469.517,2021-4-07T11:26:39Z
2021-04-07T09:28:34Z,42.805,6.029,13.3058,4.60032,2469.47,2021-4-07T11:29:42Z
2021-04-07T09:31:37Z,42.805,6.029,13.3070,4.60039,2469.494,2021-4-07T11:32:45Z
2021-04-07T09:34:40Z,42.805,6.029,13.3070,4.60020,2469.47,2021-4-07T11:35:48Z
2021-04-07T09:37:43Z,42.805,6.029,13.3063,4.60025,2469.503,2021-4-07T11:38:51Z
2021-04-07T09:40:47Z,42.805,6.029,13.3063,4.60032,2469.433,2021-4-07T11:41:55Z
2021-04-07T09:43:50Z,42.805,6.029,13.3056,4.60031,2469.503,2021-4-07T11:44:58Z
2021-04-07T09:46:53Z,42.805,6.029,13.3055,4.60031,2469.48,2021-4-07T11:48:01Z
2021-04-07T09:49:56Z,42.805,6.029,13.3066,4.60047,2469.494,2021-4-07T11:51:04Z
2021-04-07T09:52:59Z,42.805,6.029,13.3051,4.60035,2469.456,2021-4-07T11:54:07Z
2021-04-07T09:56:02Z,42.805,6.029,13.3048,4.60035,2469.48,2021-4-07T11:57:10Z
2021-04-07T09:59:05Z,42.805,6.029,13.3067,4.60016,2469.47,2021-4-07T12:00:13Z
2021-04-07T10:02:08Z,42.805,6.029,13.3070,4.60011,2469.456,2021-4-07T12:03:16Z
2021-04-07T10:05:12Z,42.805,6.029,13.3073,4.60019,2469.494,2021-4-07T12:06:20Z
2021-04-07T10:08:15Z,42.805,6.029,13.3078,4.60027,2469.447,2021-4-07T12:09:23Z
2021-04-07T10:11:18Z,42.805,6.029,13.3062,4.60027,2469.517,2021-4-07T12:12:26Z
2021-04-07T10:14:21Z,42.805,6.029,13.3051,4.60026,2469.47,2021-4-07T12:15:29Z
2021-04-07T10:17:24Z,42.805,6.029,13.3051,4.60034,2469.47,2021-4-07T12:18:32Z
2021-04-07T10:20:27Z,42.805,6.029,13.3058,4.60036,2469.456,2021-4-07T12:21:35Z
2021-04-07T10:23:30Z,42.805,6.029,13.3059,4.60027,2469.447,2021-4-07T12:24:38Z
2021-04-07T10:26:33Z,42.805,6.029,13.3060,4.60029,2469.494,2021-4-07T12:27:41Z
2021-04-07T10:29:37Z,42.805,6.029,13.3068,4.60018,2469.447,2021-4-07T12:30:44Z
2021-04-07T10:32:40Z,42.805,6.029,13.3064,4.60019,2469.456,2021-4-07T12:33:48Z
2021-04-07T10:35:43Z,42.805,6.029,13.3063,4.60031,2469.447,2021-4-07T12:36:51Z
2021-04-07T10:38:46Z,42.805,6.029,13.3054,4.60061,2469.424,2021-4-07T12:39:54Z
2021-04-07T10:41:49Z,42.805,6.029,13.3039,4.60091,2469.4,2021-4-07T12:42:57Z
2021-04-07T10:44:52Z,42.805,6.029,13.3042,4.60081,2469.447,2021-4-07T12:46:00Z
2021-04-07T10:47:55Z,42.805,6.029,13.3065,4.60041,2469.47,2021-4-07T12:49:03Z
2021-04-07T10:50:58Z,42.805,6.029,13.3073,4.60038,2469.447,2021-4-07T12:52:06Z
2021-04-07T10:54:02Z,42.805,6.029,13.3073,4.60023,2469.47,2021-4-07T12:55:09Z
2021-04-07T10:57:05Z,42.805,6.029,13.3063,4.60031,2469.424,2021-4-07T12:58:13Z
2021-04-07T11:00:08Z,42.805,6.029,13.3052,4.60040,2469.47,2021-4-07T13:01:16Z
2021-04-07T11:03:11Z,42.805,6.029,13.3041,4.60055,2469.447,2021-4-07T13:04:19Z
2021-04-07T11:06:14Z,42.805,6.029,13.3046,4.60070,2469.447,2021-4-07T13:07:22Z
2021-04-07T11:09:17Z,42.805,6.029,13.3058,4.60064,2469.447,2021-4-07T13:10:25Z
2021-04-07T11:12:20Z,42.805,6.029,13.3056,4.60051,2469.424,2021-4-07T13:13:28Z
2021-04-07T11:15:23Z,42.805,6.029,13.3064,4.60029,2469.447,2021-4-07T13:16:31Z
2021-04-07T11:18:26Z,42.805,6.029,13.3069,4.60041,2469.424,2021-4-07T13:19:34Z
2021-04-07T11:21:30Z,42.805,6.029,13.3058,4.60068,2469.447,2021-4-07T13:22:38Z
2021-04-07T11:24:33Z,42.805,6.029,13.3061,4.60054,2469.4,2021-4-07T13:25:41Z
2021-04-07T11:27:36Z,42.805,6.029,13.3064,4.60069,2469.433,2021-4-07T13:28:44Z
2021-04-07T11:30:39Z,42.805,6.029,13.3066,4.60074,2469.447,2021-4-07T13:31:47Z
2021-04-07T11:33:42Z,42.805,6.029,13.3072,4.60079,2469.4,2021-4-07T13:34:50Z
2021-04-07T11:36:45Z,42.805,6.029,13.3075,4.60072,2469.424,2021-4-07T13:37:53Z
2021-04-07T11:39:48Z,42.805,6.029,13.3076,4.60064,2469.447,2021-4-07T13:40:56Z
2021-04-07T11:42:51Z,42.805,6.029,13.3076,4.60068,2469.447,2021-4-07T13:43:59Z
2021-04-07T11:45:55Z,42.805,6.029,13.3079,4.60069,2469.433,2021-4-07T13:47:03Z
2021-04-07T11:48:58Z,42.805,6.029,13.3076,4.60063,2469.424,2021-4-07T13:50:06Z
2021-04-07T11:52:01Z,42.805,6.029,13.3077,4.60074,2469.447,2021-4-07T13:53:09Z
2021-04-07T11:55:04Z,42.805,6.029,13.3074,4.60073,2469.424,2021-4-07T13:56:12Z
2021-04-07T11:58:07Z,42.805,6.029,13.3076,4.60075,2469.386,2021-4-07T13:59:15Z
2021-04-07T12:01:10Z,42.805,6.029,13.3071,4.60079,2469.424,2021-4-07T14:02:18Z
2021-04-07T12:04:13Z,42.805,6.029,13.3078,4.60069,2469.41,2021-4-07T14:05:21Z
2021-04-07T12:07:16Z,42.805,6.029,13.3071,4.60045,2469.424,2021-4-07T14:08:24Z
2021-04-07T12:10:20Z,42.805,6.029,13.3070,4.60039,2469.386,2021-4-07T14:11:27Z
2021-04-07T12:13:23Z,42.805,6.029,13.3068,4.60077,2469.433,2021-4-07T14:14:31Z
2021-04-07T12:16:26Z,42.805,6.029,13.3063,4.60067,2469.447,2021-4-07T14:17:34Z
2021-04-07T12:19:29Z,42.805,6.029,13.3070,4.60046,2469.424,2021-4-07T14:20:37Z
2021-04-07T12:22:32Z,42.805,6.029,13.3057,4.60028,2469.433,2021-4-07T14:23:40Z
2021-04-07T12:25:35Z,42.805,6.029,13.3063,4.60040,2469.447,2021-4-07T14:26:43Z
2021-04-07T12:28:38Z,42.805,6.029,13.3061,4.60038,2469.424,2021-4-07T14:29:46Z
2021-04-07T12:31:41Z,42.805,6.029,13.3051,4.60039,2469.424,2021-4-07T14:32:49Z
2021-04-07T12:34:45Z,42.805,6.029,13.3057,4.60039,2469.447,2021-4-07T14:35:52Z
2021-04-07T12:37:48Z,42.805,6.029,13.3051,4.60035,2469.433,2021-4-07T14:38:56Z
2021-04-07T12:40:51Z,42.805,6.029,13.3058,4.60011,2469.41,2021-4-07T14:41:59Z
2021-04-07T12:43:54Z,42.805,6.029,13.3045,4.60018,2469.433,2021-4-07T14:45:02Z
2021-04-07T12:46:57Z,42.805,6.029,13.3055,4.60020,2469.4,2021-4-07T14:48:05Z
2021-04-07T12:50:00Z,42.805,6.029,13.3031,4.60047,2469.41,2021-4-07T14:51:08Z
2021-04-07T12:53:03Z,42.805,6.029,13.3040,4.60046,2469.433,2021-4-07T14:54:11Z
2021-04-07T12:56:06Z,42.805,6.029,13.3087,4.60064,2469.447,2021-4-07T14:57:14Z
2021-04-07T12:59:09Z,42.805,6.029,13.3048,4.60051,2469.456,2021-4-07T15:00:17Z
2021-04-07T13:02:13Z,42.805,6.029,13.3070,4.60071,2469.424,2021-4-07T15:03:21Z
2021-04-07T13:05:16Z,42.805,6.029,13.3048,4.60020,2469.447,2021-4-07T15:06:24Z
2021-04-07T13:08:19Z,42.805,6.029,13.3030,4.60016,2469.433,2021-4-07T15:09:27Z
2021-04-07T13:11:22Z,42.805,6.029,13.3024,4.60026,2469.433,2021-4-07T15:12:30Z
2021-04-07T13:14:25Z,42.805,6.029,13.3023,4.60016,2469.424,2021-4-07T15:15:33Z
2021-04-07T13:17:28Z,42.805,6.029,13.3027,4.60021,2469.41,2021-4-07T15:18:36Z
2021-04-07T13:20:31Z,42.805,6.029,13.3014,4.60009,2469.424,2021-4-07T15:21:39Z
2021-04-07T13:23:34Z,42.805,6.029,13.3152,4.60025,2469.424,2021-4-07T15:24:42Z
2021-04-07T13:26:38Z,42.805,6.029,13.3006,4.60013,2469.433,2021-4-07T15:27:46Z
2021-04-07T13:29:41Z,42.805,6.029,13.2991,4.60006,2469.386,2021-4-07T15:30:49Z
2021-04-07T13:32:44Z,42.805,6.029,13.2986,4.59999,2469.424,2021-4-07T15:33:52Z
2021-04-07T13:35:47Z,42.805,6.029,13.3209,4.60024,2469.47,2021-4-07T15:36:55Z
2021-04-07T13:38:50Z,42.805,6.029,13.2993,4.60002,2469.41,2021-4-07T15:39:58Z
2021-04-07T13:41:53Z,42.805,6.029,13.2994,4.59998,2469.424,2021-4-07T15:43:01Z
2021-04-07T13:44:56Z,42.805,6.029,13.3004,4.59998,2469.41,2021-4-07T15:46:04Z
2021-04-07T13:47:59Z,42.805,6.029,13.2984,4.59998,2469.41,2021-4-07T15:49:07Z
2021-04-07T13:51:03Z,42.805,6.029,13.3032,4.60034,2469.41,2021-4-07T15:52:11Z
2021-04-07T13:54:06Z,42.805,6.029,13.2985,4.60001,2469.433,2021-4-07T15:55:14Z
2021-04-07T13:57:09Z,42.805,6.029,13.3164,4.60007,2469.47,2021-4-07T15:58:17Z
2021-04-07T14:00:12Z,42.805,6.029,13.2990,4.60000,2469.456,2021-4-07T16:01:20Z
2021-04-07T14:03:15Z,42.805,6.029,13.2987,4.59996,2469.47,2021-4-07T16:04:23Z
2021-04-07T14:06:18Z,42.805,6.029,13.2982,4.59994,2469.447,2021-4-07T16:07:26Z
2021-04-07T14:09:21Z,42.805,6.029,13.2986,4.59996,2469.433,2021-4-07T16:10:29Z
2021-04-07T14:12:24Z,42.805,6.029,13.2988,4.60003,2469.433,2021-4-07T16:13:32Z
2021-04-07T14:15:28Z,42.805,6.029,13.2981,4.59996,2469.447,2021-4-07T16:16:36Z
2021-04-07T14:18:31Z,42.805,6.029,13.2987,4.59997,2469.48,2021-4-07T16:19:39Z
2021-04-07T14:21:34Z,42.805,6.029,13.3124,4.60020,2469.456,2021-4-07T16:22:42Z
2021-04-07T14:24:37Z,42.805,6.029,13.2986,4.60003,2469.433,2021-4-07T16:25:45Z
2021-04-07T14:27:40Z,42.805,6.029,13.2982,4.59999,2469.494,2021-4-07T16:28:48Z
2021-04-07T14:30:43Z,42.805,6.029,13.2982,4.60003,2469.494,2021-4-07T16:31:51Z
2021-04-07T14:33:46Z,42.805,6.029,13.2986,4.60033,2469.47,2021-4-07T16:34:54Z
2021-04-07T14:36:49Z,42.805,6.029,13.2983,4.60003,2469.48,2021-4-07T16:37:57Z
2021-04-07T14:39:53Z,42.805,6.029,13.2982,4.59996,2469.503,2021-4-07T16:41:00Z
2021-04-07T14:42:56Z,42.805,6.029,13.2986,4.60009,2469.494,2021-4-07T16:44:04Z
2021-04-07T14:45:59Z,42.805,6.029,13.2979,4.60033,2469.456,2021-4-07T16:47:07Z
2021-04-07T14:49:02Z,42.805,6.029,13.2982,4.60004,2469.517,2021-4-07T16:50:10Z
2021-04-07T14:52:05Z,42.805,6.029,13.2980,4.60009,2469.517,2021-4-07T16:53:13Z
2021-04-07T14:55:08Z,42.805,6.029,13.2981,4.59994,2469.503,2021-4-07T16:56:16Z
2021-04-07T14:58:11Z,42.805,6.029,13.2981,4.59995,2469.517,2021-4-07T16:59:19Z
2021-04-07T15:01:14Z,42.805,6.029,13.2998,4.59996,2469.503,2021-4-07T17:02:22Z
2021-04-07T15:04:18Z,42.805,6.029,13.2982,4.59993,2469.526,2021-4-07T17:05:25Z
2021-04-07T15:07:21Z,42.805,6.029,13.2982,4.60008,2469.55,2021-4-07T17:08:29Z
2021-04-07T15:10:24Z,42.805,6.029,13.2984,4.60014,2469.526,2021-4-07T17:11:32Z
2021-04-07T15:13:27Z,42.805,6.029,13.2984,4.59994,2469.55,2021-4-07T17:14:35Z